Tracking 35055 objects as of 19-Aug-2026
HD Live streaming from Space Station
objects crossing your sky now

SL-12 PLAT


SL-12 PLAT is no longer on orbit


NORAD ID: 15948
Int'l Code: 1985-070C
Launch date: August 8, 1985
Source: Commonwealth of Independent States (former USSR) (CIS)
Launch site: TYURATAM MISSILE AND SPACE COMPLEX (TTMTR)
Decay date: 1985-08-09
Your satellite tracking list
Your tracking list is empty




NASA's NSSDC Master Catalog

Two Line Element Set (TLE):
1 15948U 85070  C 85221.60314087  .18052092 +56346-4 +14750-2 0  9998
2 15948 051.6075 278.0373 0006675 130.9304 229.2655 16.38947828000127
Source of the keplerian elements: AFSPC